| time (UTC) | temp C | wind direction | speed KPH | gust KPH | rain 1hr cm | rain 24hr cm | rain mn cm | humidity % | barometer mb |
| 20260505091510 | 10 | 151 | 3.2 | 12.9 | 0.00 | 0.00 | 0.00 | 86 | 1010.4 |
| 20260505090012 | 10 | 247 | 4.8 | 11.3 | 0.00 | 0.00 | 0.00 | 85 | 1010.4 |
| 20260505084514 | 10 | 106 | 3.2 | 14.5 | 0.00 | 0.00 | 0.00 | 85 | 1010.4 |
| 20260505083010 | 10 | 111 | 1.6 | 8.0 | 0.00 | 0.00 | 0.00 | 85 | 1010.1 |
| 20260505081506 | 10 | 201 | 4.8 | 14.5 | 0.00 | 0.00 | 0.00 | 85 | 1010.2 |
| 20260505080010 | 10 | 212 | 3.2 | 12.9 | 0.00 | 0.00 | 0.00 | 85 | 1010.4 |
| 20260505074516 | 10 | 131 | 3.2 | 9.7 | 0.00 | 0.00 | 0.00 | 85 | 1010.4 |
| 20260505073017 | 10 | 219 | 3.2 | 12.9 | 0.00 | 0.00 | 0.00 | 84 | 1010.4 |
| 20260505071505 | 10 | 214 | 3.2 | 9.7 | 0.00 | 0.00 | 0.00 | 84 | 1010.4 |
| 20260505070008 | 10 | 139 | 1.6 | 8.0 | 0.00 | 0.00 | 0.00 | 84 | 1010.4 |
| 20260505064511 | 10 | 191 | 3.2 | 9.7 | 0.00 | 0.00 | 0.00 | 83 | 1010.5 |
| 20260505063016 | 10 | 236 | 3.2 | 16.1 | 0.00 | 0.00 | 0.00 | 82 | 1010.6 |
| 20260505061518 | 10 | 143 | 3.2 | 9.7 | 0.00 | 0.00 | 0.00 | 82 | 1010.7 |
| 20260505060024 | 10 | 160 | 1.6 | 8.0 | 0.00 | 0.00 | 0.00 | 81 | 1010.8 |
| 20260505054511 | 10 | 191 | 4.8 | 11.3 | 0.00 | 0.00 | 0.00 | 79 | 1010.7 |
| 20260505053018 | 11 | 238 | 4.8 | 20.9 | 0.00 | 0.00 | 0.00 | 78 | 1010.6 |
| 20260505051522 | 11 | 238 | 3.2 | 16.1 | 0.00 | 0.00 | 0.00 | 78 | 1010.7 |
| 20260505041531 | 11 | 262 | 4.8 | 17.7 | 0.00 | 0.00 | 0.00 | 74 | 1010.8 |
| 20260505040020 | 11 | 238 | 3.2 | 22.5 | 0.00 | 0.00 | 0.00 | 73 | 1010.8 |
| 20260505034524 | 11 | 110 | 6.4 | 16.1 | 0.00 | 0.00 | 0.00 | 72 | 1010.8 |
| 20260505033022 | 12 | 219 | 1.6 | 19.3 | 0.00 | 0.00 | 0.00 | 71 | 1010.7 |
| 20260505031511 | 12 | 212 | 4.8 | 19.3 | 0.00 | 0.00 | 0.00 | 69 | 1010.8 |
| 20260505030017 | 12 | 226 | 6.4 | 17.7 | 0.00 | 0.00 | 0.00 | 69 | 1010.9 |
| 20260505024525 | 12 | 146 | 6.4 | 17.7 | 0.00 | 0.00 | 0.00 | 68 | 1010.9 |
| 20260505023033 | 12 | 236 | 3.2 | 17.7 | 0.00 | 0.00 | 0.00 | 68 | 1010.8 |
| 20260505021527 | 12 | 149 | 6.4 | 12.9 | 0.00 | 0.00 | 0.00 | 67 | 1010.9 |
| 20260505020018 | 12 | 219 | 6.4 | 12.9 | 0.00 | 0.00 | 0.00 | 66 | 1010.9 |
| 20260505014518 | 13 | 259 | 4.8 | 29.0 | 0.00 | 0.00 | 0.00 | 64 | 1010.8 |
| 20260505013023 | 13 | 240 | 1.6 | 16.1 | 0.00 | 0.00 | 0.00 | 62 | 1010.6 |
| 20260505011530 | 13 | 172 | 8.0 | 22.5 | 0.00 | 0.00 | 0.00 | 60 | 1010.4 |
| 20260505010026 | 13 | 112 | 3.2 | 19.3 | 0.00 | 0.00 | 0.00 | 59 | 1010.2 |
| 20260505004527 | 13 | 210 | 8.0 | 20.9 | 0.00 | 0.00 | 0.00 | 56 | 1010.0 |
| 20260505003016 | 14 | 258 | 3.2 | 19.3 | 0.00 | 0.00 | 0.00 | 55 | 1009.4 |
| 20260505001522 | 14 | 205 | 4.8 | 17.7 | 0.00 | 0.00 | 0.00 | 54 | 1008.9 |
| 20260505000030 | 15 | 211 | 9.7 | 16.1 | 0.00 | 0.00 | 0.00 | 52 | 1008.8 |
| 20260504234524 | 15 | 100 | 4.8 | 22.5 | 0.00 | 0.00 | 0.00 | 50 | 1008.7 |
| 20260504233026 | 16 | 269 | 4.8 | 17.7 | 0.00 | 0.00 | 0.00 | 48 | 1008.5 |
| 20260504231519 | 16 | 231 | 3.2 | 17.7 | 0.00 | 0.00 | 0.00 | 47 | 1008.2 |
| 20260504230024 | 17 | 256 | 6.4 | 20.9 | 0.00 | 0.00 | 0.00 | 45 | 1008.0 |
| 20260504224508 | 17 | 254 | 8.0 | 19.3 | 0.00 | 0.00 | 0.00 | 46 | 1007.8 |
| 20260504223010 | 18 | 184 | 12.9 | 27.4 | 0.00 | 0.00 | 0.00 | 44 | 1007.5 |
| 20260504221520 | 18 | 103 | 12.9 | 30.6 | 0.00 | 0.00 | 0.00 | 43 | 1007.3 |
| 20260504220019 | 18 | 248 | 11.3 | 33.8 | 0.00 | 0.00 | 0.00 | 41 | 1007.4 |
| 20260504214511 | 19 | 126 | 8.0 | 24.1 | 0.00 | 0.00 | 0.00 | 40 | 1007.3 |
| 20260504213026 | 20 | 250 | 6.4 | 33.8 | 0.00 | 0.00 | 0.00 | 38 | 1007.2 |
| 20260504211517 | 20 | 198 | 11.3 | 29.0 | 0.00 | 0.00 | 0.00 | 36 | 1007.1 |
| 20260504210019 | 20 | 140 | 8.0 | 22.5 | 0.00 | 0.00 | 0.00 | 36 | 1007.0 |
| 20260504204522 | 21 | 245 | 9.7 | 24.1 | 0.00 | 0.00 | 0.00 | 36 | 1006.9 |
| 20260504203008 | 21 | 207 | 8.0 | 16.1 | 0.00 | 0.00 | 0.00 | 32 | 1007.0 |
| 20260504201517 | 21 | 212 | 9.7 | 24.1 | 0.00 | 0.00 | 0.00 | 29 | 1007.0 |
| 20260504200016 | 22 | 220 | 6.4 | 22.5 | 0.00 | 0.00 | 0.00 | 30 | 1007.0 |
| 20260504194522 | 21 | 193 | 9.7 | 27.4 | 0.00 | 0.00 | 0.00 | 28 | 1007.1 |
| 20260504193025 | 21 | 204 | 8.0 | 25.7 | 0.00 | 0.00 | 0.00 | 28 | 1007.2 |
| 20260504191507 | 21 | 229 | 6.4 | 20.9 | 0.00 | 0.00 | 0.00 | 28 | 1007.1 |
| 20260504190014 | 21 | 204 | 8.0 | 17.7 | 0.00 | 0.00 | 0.00 | 28 | 1007.2 |
| 20260504184518 | 21 | 359 | 6.4 | 35.4 | 0.00 | 0.00 | 0.00 | 28 | 1007.3 |
| 20260504183024 | 22 | 73 | 6.4 | 22.5 | 0.00 | 0.00 | 0.00 | 28 | 1007.3 |
| 20260504181527 | 21 | 217 | 6.4 | 19.3 | 0.00 | 0.00 | 0.00 | 28 | 1007.3 |
| 20260504180010 | 21 | 262 | 8.0 | 24.1 | 0.00 | 0.00 | 0.00 | 28 | 1007.7 |
| 20260504174514 | 21 | 237 | 6.4 | 29.0 | 0.00 | 0.00 | 0.00 | 28 | 1007.5 |
| 20260504173031 | 20 | 193 | 9.7 | 25.7 | 0.00 | 0.00 | 0.00 | 28 | 1007.7 |
| 20260504171525 | 21 | 221 | 4.8 | 14.5 | 0.00 | 0.00 | 0.00 | 30 | 1007.6 |